Weather History for Molokai, HI

Change the Weather History Date:

Tuesday, May 14, 2013

  Actual Average Record
Temperature  
Mean Temperature 74 °F -  
Max Temperature 79 °F 81 °F 85 °F (1986)
Min Temperature 69 °F 68 °F 60 °F (2007)
Cooling Degree Days 9    
Growing Degree Days 24 (Base 50)    
Moisture  
Dew Point 67 °F    
Average Humidity 78    
Maximum Humidity 93    
Minimum Humidity 64    
Precipitation  
Precipitation 0.02 in - - ()
Sea Level Pressure  
Sea Level Pressure 30.09 in    
Wind  
Wind Speed 14 mph (NNE)    
Max Wind Speed 20 mph    
Max Gust Speed 36 mph    
Visibility 10 miles    
Events Rain    
Averages and records for this station are not official NWS values.
T = Trace of Precipitation, MM = Missing Value Source: NWS Daily Summary

Daily Weather History Graph

Daily Weather History Graph

Search for Another Location

Airport:

Trip Planner

Search our weather history database for the weather conditions in past years. The results will help you decide how hot, cold, wet, or windy it might be!

Date:

Astronomy

May. 14, 2013 Rise Set
Actual Time 5:50 AM HST 6:59 PM HST
Civil Twilight 5:26 AM HST 7:22 PM HST
Nautical Twilight 4:58 AM HST 7:51 PM HST
Astronomical Twilight 4:29 AM HST 8:20 PM HST
Moon 9:38 AM HST (5/14) 10:58 PM HST (5/14)
Length of Visible Light 13h 56m
Length of Day
13h 08m
Waxing Crescent, 20% of the Moon is Illuminated
May 14
Waxing Crescent
May 17
First Quarter
May 24
Full
May 31
Last Quarter
Jun 8
New

Hourly Weather History & Observations

Time (HST) Temp. Dew Point Humidity Pressure Visibility Wind Dir Wind Speed Gust Speed Precip Events Conditions
12:54 AM 72.0 °F 66.9 °F 84% 30.09 in 10.0 mi NNE 11.5 mph 18.4 mph N/A   Overcast
1:54 AM 71.1 °F 68.0 °F 90% 30.07 in 10.0 mi NNE 12.7 mph 19.6 mph 0.00 in   Overcast
2:54 AM 70.0 °F 66.9 °F 90% 30.06 in 10.0 mi NNE 13.8 mph - N/A   Overcast
3:54 AM 70.0 °F 66.9 °F 90% 30.06 in 10.0 mi NNE 15.0 mph - N/A   Scattered Clouds
4:54 AM 70.0 °F 68.0 °F 93% 30.07 in 4.0 mi NNE 12.7 mph 24.2 mph 0.01 in Rain Rain
5:54 AM 69.1 °F 64.9 °F 87% 30.08 in 10.0 mi NNE 8.1 mph - 0.01 in   Mostly Cloudy
6:54 AM 72.0 °F 68.0 °F 87% 30.09 in 10.0 mi North 9.2 mph 17.3 mph N/A   Mostly Cloudy
7:54 AM 73.9 °F 66.9 °F 79% 30.09 in 10.0 mi NNE 12.7 mph 19.6 mph N/A   Scattered Clouds
8:54 AM 75.9 °F 68.0 °F 76% 30.10 in 10.0 mi NNE 12.7 mph 21.9 mph N/A   Scattered Clouds
9:54 AM 79.0 °F 66.9 °F 66% 30.10 in 10.0 mi NE 11.5 mph 20.7 mph N/A   Partly Cloudy
10:54 AM 79.0 °F 66.9 °F 66% 30.10 in 10.0 mi NE 18.4 mph 25.3 mph N/A   Partly Cloudy
11:54 AM 79.0 °F 66.0 °F 64% 30.10 in 10.0 mi NE 18.4 mph 29.9 mph N/A   Scattered Clouds
12:54 PM 78.1 °F 68.0 °F 71% 30.08 in 10.0 mi NNE 19.6 mph 32.2 mph N/A   Clear
1:54 PM 78.1 °F 66.9 °F 68% 30.08 in 10.0 mi NNE 19.6 mph 29.9 mph N/A   Scattered Clouds
2:54 PM 78.1 °F 66.9 °F 68% 30.08 in 10.0 mi NNE 18.4 mph 35.7 mph N/A   Scattered Clouds
3:54 PM 77.0 °F 66.0 °F 69% 30.07 in 10.0 mi NNE 19.6 mph 28.8 mph N/A   Scattered Clouds
4:54 PM 75.9 °F 66.0 °F 71% 30.08 in 10.0 mi NNE 17.3 mph 31.1 mph N/A   Partly Cloudy
5:54 PM 73.9 °F 66.0 °F 76% 30.09 in 10.0 mi NNE 15.0 mph 25.3 mph N/A   Partly Cloudy
6:54 PM 72.0 °F 64.9 °F 78% 30.10 in 10.0 mi NNE 15.0 mph 24.2 mph N/A   Clear
7:54 PM 72.0 °F 66.0 °F 81% 30.12 in 10.0 mi NNE 12.7 mph 24.2 mph N/A   Clear
8:54 PM 72.0 °F 66.0 °F 81% 30.13 in 10.0 mi NNE 12.7 mph 21.9 mph N/A   Clear
9:54 PM 71.1 °F 66.0 °F 84% 30.14 in 10.0 mi NNE 13.8 mph 23.0 mph N/A   Clear
10:54 PM 72.0 °F 66.0 °F 81% 30.14 in 10.0 mi NNE 12.7 mph 19.6 mph N/A   Partly Cloudy
11:54 PM 72.0 °F 66.0 °F 81% 30.14 in 10.0 mi NE 11.5 mph 21.9 mph N/A   Overcast